TimeCST,TemperatureF,Dew PointF,Humidity,Sea Level PressureIn,VisibilityMPH,Wind Direction,Wind SpeedMPH,Gust SpeedMPH,PrecipitationIn,Events,Conditions,WindDirDegrees,DateUTC
12:53 AM,28.9,25.0,85,30.46,7.0,ENE,4.6,-,N/A,,Overcast,60,2012-02-08 06:53:00
1:53 AM,28.0,26.1,92,30.47,6.0,NNE,3.5,-,N/A,,Overcast,30,2012-02-08 07:53:00
2:01 AM,28.4,26.6,93,30.44,7.0,NE,4.6,-,N/A,,Overcast,40,2012-02-08 08:01:00
2:53 AM,28.0,26.1,92,30.46,7.0,NNE,3.5,-,N/A,,Overcast,30,2012-02-08 08:53:00
3:53 AM,28.0,26.1,92,30.46,3.0,NNW,9.2,-,N/A,,Overcast,340,2012-02-08 09:53:00
4:53 AM,27.0,25.0,92,30.47,3.0,NNW,11.5,-,N/A,,Overcast,340,2012-02-08 10:53:00
5:53 AM,27.0,24.1,89,30.47,10.0,North,8.1,-,N/A,,Overcast,350,2012-02-08 11:53:00
6:16 AM,26.6,24.8,93,30.44,10.0,North,6.9,-,N/A,,Overcast,350,2012-02-08 12:16:00
6:53 AM,27.0,23.0,85,30.47,10.0,NNW,9.2,-,N/A,,Overcast,340,2012-02-08 12:53:00
7:53 AM,27.0,23.0,85,30.48,10.0,North,5.8,-,N/A,,Overcast,350,2012-02-08 13:53:00
8:53 AM,28.0,24.1,85,30.49,10.0,NW,5.8,-,N/A,,Overcast,320,2012-02-08 14:53:00
9:39 AM,28.4,23.0,80,30.45,10.0,NNW,5.8,-,N/A,,Overcast,330,2012-02-08 15:39:00
9:53 AM,28.0,23.0,81,30.48,10.0,NNW,5.8,-,N/A,,Overcast,330,2012-02-08 15:53:00
10:00 AM,28.4,23.0,80,30.45,10.0,NNW,5.8,-,N/A,,Overcast,330,2012-02-08 16:00:00
10:53 AM,28.0,21.0,75,30.49,10.0,North,4.6,-,N/A,,Overcast,350,2012-02-08 16:53:00
11:53 AM,28.0,21.0,75,30.48,10.0,WNW,6.9,-,N/A,,Overcast,290,2012-02-08 17:53:00
12:53 PM,28.0,19.9,72,30.45,10.0,NW,9.2,-,N/A,,Overcast,310,2012-02-08 18:53:00
1:53 PM,28.0,19.0,69,30.43,10.0,WNW,6.9,-,N/A,,Overcast,290,2012-02-08 19:53:00
2:53 PM,28.0,19.0,69,30.43,10.0,WNW,8.1,-,N/A,,Overcast,300,2012-02-08 20:53:00
3:19 PM,28.4,17.6,64,30.39,10.0,West,4.6,-,N/A,,Scattered Clouds,260,2012-02-08 21:19:00
3:26 PM,28.4,19.4,69,30.39,10.0,NW,10.4,-,N/A,,Mostly Cloudy,310,2012-02-08 21:26:00
3:53 PM,28.0,19.9,72,30.42,10.0,NW,9.2,-,N/A,,Overcast,310,2012-02-08 21:53:00
4:53 PM,26.1,18.0,71,30.43,10.0,NW,5.8,17.3,N/A,,Overcast,320,2012-02-08 22:53:00
5:53 PM,24.1,17.1,75,30.42,10.0,NW,6.9,-,N/A,,Mostly Cloudy,320,2012-02-08 23:53:00
6:13 PM,21.2,15.8,80,30.38,10.0,NW,4.6,-,N/A,,Partly Cloudy,310,2012-02-09 00:13:00
6:53 PM,21.9,16.0,78,30.42,10.0,West,3.5,-,N/A,,Clear,270,2012-02-09 00:53:00
7:53 PM,21.0,14.0,74,30.41,10.0,West,4.6,-,N/A,,Clear,280,2012-02-09 01:53:00
8:53 PM,19.0,14.0,81,30.41,10.0,West,4.6,-,N/A,,Clear,280,2012-02-09 02:53:00
9:53 PM,16.0,12.9,88,30.41,10.0,West,3.5,-,N/A,,Clear,270,2012-02-09 03:53:00
10:53 PM,16.0,12.0,84,30.41,10.0,West,6.9,-,N/A,,Clear,270,2012-02-09 04:53:00
11:53 PM,16.0,12.0,84,30.40,10.0,West,4.6,-,N/A,,Clear,260,2012-02-09 05:53:00